Time,TemperatureF,DewpointF,PressureIn,WindDirection,WindDirectionDegrees,WindSpeedMPH,WindSpeedGustMPH,Humidity,HourlyPrecipIn,Conditions,Clouds,dailyrainin,SoftwareType,DateUTC
2013-05-25 00:00:00,56.9,38.9,30.19,NE,45,0.0,-999.0,51,0.00,,,0.00,Wunderground v.1.15,2013-05-25 04:00:00,
2013-05-25 00:05:00,56.9,38.9,30.19,NE,45,0.0,-999.0,51,0.00,,,0.00,Wunderground v.1.15,2013-05-25 04:05:00,
2013-05-25 00:10:00,56.9,38.9,30.19,NE,45,0.0,-999.0,51,0.00,,,0.00,Wunderground v.1.15,2013-05-25 04:10:00,
2013-05-25 00:15:00,56.9,38.9,30.19,NE,45,0.0,-999.0,51,0.00,,,0.00,Wunderground v.1.15,2013-05-25 04:15:00,
2013-05-25 00:20:00,56.9,38.9,30.19,NE,45,0.0,-999.0,51,0.00,,,0.00,Wunderground v.1.15,2013-05-25 04:20:00,
2013-05-25 00:25:00,56.9,38.9,30.19,NE,45,0.0,-999.0,51,0.00,,,0.00,Wunderground v.1.15,2013-05-25 04:25:00,
2013-05-25 00:30:00,56.9,38.9,30.19,NE,45,0.0,-999.0,51,0.00,,,0.00,Wunderground v.1.15,2013-05-25 04:30:00,
2013-05-25 00:35:00,56.9,38.9,30.19,NE,45,0.0,-999.0,51,0.00,,,0.00,Wunderground v.1.15,2013-05-25 04:35:00,
2013-05-25 00:40:00,56.9,38.9,30.19,NE,45,0.0,-999.0,51,0.00,,,0.00,Wunderground v.1.15,2013-05-25 04:40:00,
2013-05-25 00:45:00,55.0,39.1,30.20,ENE,68,0.0,-999.0,55,0.00,,,0.00,Wunderground v.1.15,2013-05-25 04:45:00,
2013-05-25 00:50:00,55.0,39.1,30.20,ENE,68,0.0,-999.0,55,0.00,,,0.00,Wunderground v.1.15,2013-05-25 04:50:00,
2013-05-25 00:55:00,55.0,39.1,30.20,ENE,68,0.0,-999.0,55,0.00,,,0.00,Wunderground v.1.15,2013-05-25 04:55:00,
2013-05-25 01:00:00,55.0,39.1,30.20,ENE,68,0.0,-999.0,55,0.00,,,0.00,Wunderground v.1.15,2013-05-25 05:00:00,
2013-05-25 01:05:00,55.0,39.1,30.20,ENE,68,0.0,-999.0,55,0.00,,,0.00,Wunderground v.1.15,2013-05-25 05:05:00,
2013-05-25 01:10:00,55.0,39.1,30.20,ENE,68,0.0,-999.0,55,0.00,,,0.00,Wunderground v.1.15,2013-05-25 05:10:00,
2013-05-25 01:15:00,53.9,40.3,30.21,ENE,68,0.0,-999.0,60,0.00,,,0.00,Wunderground v.1.15,2013-05-25 05:15:00,
2013-05-25 01:20:00,53.9,40.3,30.21,ENE,68,0.0,-999.0,60,0.00,,,0.00,Wunderground v.1.15,2013-05-25 05:20:00,
2013-05-25 01:25:00,53.9,40.3,30.21,ENE,68,0.0,-999.0,60,0.00,,,0.00,Wunderground v.1.15,2013-05-25 05:25:00,
2013-05-25 01:30:00,53.9,40.3,30.21,ENE,68,0.0,-999.0,60,0.00,,,0.00,Wunderground v.1.15,2013-05-25 05:30:00,
2013-05-25 01:35:00,53.9,40.3,30.21,ENE,68,0.0,-999.0,60,0.00,,,0.00,Wunderground v.1.15,2013-05-25 05:35:00,
2013-05-25 01:40:00,53.9,40.3,30.21,ENE,68,0.0,-999.0,60,0.00,,,0.00,Wunderground v.1.15,2013-05-25 05:40:00,
2013-05-25 01:45:00,52.7,40.9,30.20,ENE,68,0.0,-999.0,64,0.00,,,0.00,Wunderground v.1.15,2013-05-25 05:45:00,
2013-05-25 01:50:00,52.7,40.9,30.20,ENE,68,0.0,-999.0,64,0.00,,,0.00,Wunderground v.1.15,2013-05-25 05:50:00,
2013-05-25 01:55:00,52.7,40.9,30.20,ENE,68,0.0,-999.0,64,0.00,,,0.00,Wunderground v.1.15,2013-05-25 05:55:00,
2013-05-25 02:00:00,52.7,40.9,30.20,ENE,68,0.0,-999.0,64,0.00,,,0.00,Wunderground v.1.15,2013-05-25 06:00:00,
2013-05-25 02:05:00,52.7,40.9,30.20,ENE,68,0.0,-999.0,64,0.00,,,0.00,Wunderground v.1.15,2013-05-25 06:05:00,
2013-05-25 02:10:00,52.7,40.9,30.20,ENE,68,0.0,-999.0,64,0.00,,,0.00,Wunderground v.1.15,2013-05-25 06:10:00,
2013-05-25 02:15:00,51.7,41.1,30.20,N/A,-737280,0.0,-999.0,67,0.00,,,0.00,Wunderground v.1.15,2013-05-25 06:15:00,
2013-05-25 02:20:00,51.7,41.1,30.20,N/A,-737280,0.0,-999.0,67,0.00,,,0.00,Wunderground v.1.15,2013-05-25 06:20:00,
2013-05-25 02:25:00,51.7,41.1,30.20,N/A,-737280,0.0,-999.0,67,0.00,,,0.00,Wunderground v.1.15,2013-05-25 06:25:00,
2013-05-25 02:30:00,51.7,41.1,30.20,N/A,-737280,0.0,-999.0,67,0.00,,,0.00,Wunderground v.1.15,2013-05-25 06:30:00,
2013-05-25 02:35:00,51.7,41.1,30.20,N/A,-737280,0.0,-999.0,67,0.00,,,0.00,Wunderground v.1.15,2013-05-25 06:35:00,
2013-05-25 02:40:00,51.7,41.1,30.20,N/A,-737280,0.0,-999.0,67,0.00,,,0.00,Wunderground v.1.15,2013-05-25 06:40:00,
2013-05-25 02:45:00,50.8,41.4,30.21,N/A,-737280,0.0,-999.0,70,0.00,,,0.00,Wunderground v.1.15,2013-05-25 06:45:00,
2013-05-25 02:50:00,50.8,41.4,30.21,N/A,-737280,0.0,-999.0,70,0.00,,,0.00,Wunderground v.1.15,2013-05-25 06:50:00,
2013-05-25 02:55:00,50.8,41.4,30.21,N/A,-737280,0.0,-999.0,70,0.00,,,0.00,Wunderground v.1.15,2013-05-25 06:55:00,
2013-05-25 03:00:00,50.8,41.4,30.21,N/A,-737280,0.0,-999.0,70,0.00,,,0.00,Wunderground v.1.15,2013-05-25 07:00:00,
2013-05-25 03:05:00,50.8,41.4,30.21,N/A,-737280,0.0,-999.0,70,0.00,,,0.00,Wunderground v.1.15,2013-05-25 07:05:00,
2013-05-25 03:10:00,50.8,41.4,30.21,N/A,-737280,0.0,-999.0,70,0.00,,,0.00,Wunderground v.1.15,2013-05-25 07:10:00,
2013-05-25 03:15:00,51.0,42.3,30.20,ENE,68,0.0,-999.0,72,0.00,,,0.00,Wunderground v.1.15,2013-05-25 07:15:00,
2013-05-25 03:20:00,51.0,42.3,30.20,ENE,68,0.0,-999.0,72,0.00,,,0.00,Wunderground v.1.15,2013-05-25 07:20:00,
2013-05-25 03:25:00,51.0,42.3,30.20,ENE,68,0.0,-999.0,72,0.00,,,0.00,Wunderground v.1.15,2013-05-25 07:25:00,
2013-05-25 03:30:00,51.0,42.3,30.20,ENE,68,0.0,-999.0,72,0.00,,,0.00,Wunderground v.1.15,2013-05-25 07:30:00,
2013-05-25 03:35:00,51.0,42.3,30.20,ENE,68,0.0,-999.0,72,0.00,,,0.00,Wunderground v.1.15,2013-05-25 07:35:00,
2013-05-25 03:40:00,51.0,42.3,30.20,ENE,68,0.0,-999.0,72,0.00,,,0.00,Wunderground v.1.15,2013-05-25 07:40:00,
2013-05-25 03:45:00,51.2,42.1,30.20,ENE,68,0.0,-999.0,71,0.00,,,0.00,Wunderground v.1.15,2013-05-25 07:45:00,
2013-05-25 03:50:00,51.2,42.1,30.20,ENE,68,0.0,-999.0,71,0.00,,,0.00,Wunderground v.1.15,2013-05-25 07:50:00,
2013-05-25 03:55:00,51.2,42.1,30.20,ENE,68,0.0,-999.0,71,0.00,,,0.00,Wunderground v.1.15,2013-05-25 07:55:00,
2013-05-25 04:00:00,51.2,42.1,30.20,ENE,68,0.0,-999.0,71,0.00,,,0.00,Wunderground v.1.15,2013-05-25 08:00:00,
2013-05-25 04:05:00,51.2,42.1,30.20,ENE,68,0.0,-999.0,71,0.00,,,0.00,Wunderground v.1.15,2013-05-25 08:05:00,
2013-05-25 04:10:00,51.2,42.1,30.20,ENE,68,0.0,-999.0,71,0.00,,,0.00,Wunderground v.1.15,2013-05-25 08:10:00,
2013-05-25 04:15:00,51.1,41.7,30.20,East,90,0.0,-999.0,70,0.00,,,0.00,Wunderground v.1.15,2013-05-25 08:15:00,
2013-05-25 04:20:00,51.1,41.7,30.20,East,90,0.0,-999.0,70,0.00,,,0.00,Wunderground v.1.15,2013-05-25 08:20:00,
2013-05-25 04:25:00,51.1,41.7,30.20,East,90,0.0,-999.0,70,0.00,,,0.00,Wunderground v.1.15,2013-05-25 08:25:00,
2013-05-25 04:30:00,51.1,41.7,30.20,East,90,0.0,-999.0,70,0.00,,,0.00,Wunderground v.1.15,2013-05-25 08:30:00,
2013-05-25 04:35:00,51.1,41.7,30.20,East,90,0.0,-999.0,70,0.00,,,0.00,Wunderground v.1.15,2013-05-25 08:35:00,
2013-05-25 04:40:00,51.1,41.7,30.20,East,90,0.0,-999.0,70,0.00,,,0.00,Wunderground v.1.15,2013-05-25 08:40:00,
2013-05-25 04:45:00,51.4,41.6,30.20,East,90,0.0,-999.0,69,0.00,,,0.00,Wunderground v.1.15,2013-05-25 08:45:00,
2013-05-25 04:50:00,51.4,41.6,30.20,East,90,0.0,-999.0,69,0.00,,,0.00,Wunderground v.1.15,2013-05-25 08:50:00,
2013-05-25 04:55:00,51.4,41.6,30.20,East,90,0.0,-999.0,69,0.00,,,0.00,Wunderground v.1.15,2013-05-25 08:55:00,
2013-05-25 05:00:00,51.4,41.6,30.20,East,90,0.0,-999.0,69,0.00,,,0.00,Wunderground v.1.15,2013-05-25 09:00:00,
2013-05-25 05:05:00,51.4,41.6,30.20,East,90,0.0,-999.0,69,0.00,,,0.00,Wunderground v.1.15,2013-05-25 09:05:00,
2013-05-25 05:10:00,51.4,41.6,30.20,East,90,0.0,-999.0,69,0.00,,,0.00,Wunderground v.1.15,2013-05-25 09:10:00,
2013-05-25 05:15:00,51.0,41.2,30.20,ESE,113,0.0,-999.0,69,0.00,,,0.00,Wunderground v.1.15,2013-05-25 09:15:00,
2013-05-25 05:20:00,51.0,41.2,30.20,ESE,113,0.0,-999.0,69,0.00,,,0.00,Wunderground v.1.15,2013-05-25 09:20:00,
2013-05-25 05:25:00,51.0,41.2,30.20,ESE,113,0.0,-999.0,69,0.00,,,0.00,Wunderground v.1.15,2013-05-25 09:25:00,
2013-05-25 05:30:00,51.0,41.2,30.20,ESE,113,0.0,-999.0,69,0.00,,,0.00,Wunderground v.1.15,2013-05-25 09:30:00,
2013-05-25 05:35:00,51.0,41.2,30.20,ESE,113,0.0,-999.0,69,0.00,,,0.00,Wunderground v.1.15,2013-05-25 09:35:00,
2013-05-25 05:40:00,51.0,41.2,30.20,ESE,113,0.0,-999.0,69,0.00,,,0.00,Wunderground v.1.15,2013-05-25 09:40:00,
2013-05-25 05:45:00,50.6,41.5,30.22,ENE,68,0.0,-999.0,71,0.00,,,0.00,Wunderground v.1.15,2013-05-25 09:45:00,
2013-05-25 05:50:00,50.6,41.5,30.22,ENE,68,0.0,-999.0,71,0.00,,,0.00,Wunderground v.1.15,2013-05-25 09:50:00,
2013-05-25 05:55:00,50.6,41.5,30.22,ENE,68,0.0,-999.0,71,0.00,,,0.00,Wunderground v.1.15,2013-05-25 09:55:00,
2013-05-25 06:00:00,50.6,41.5,30.22,ENE,68,0.0,-999.0,71,0.00,,,0.00,Wunderground v.1.15,2013-05-25 10:00:00,
2013-05-25 06:05:00,50.6,41.5,30.22,ENE,68,0.0,-999.0,71,0.00,,,0.00,Wunderground v.1.15,2013-05-25 10:05:00,
2013-05-25 06:10:00,50.6,41.5,30.22,ENE,68,0.0,-999.0,71,0.00,,,0.00,Wunderground v.1.15,2013-05-25 10:10:00,
2013-05-25 06:15:00,49.6,42.3,30.23,N/A,-737280,0.0,-999.0,76,0.00,,,0.00,Wunderground v.1.15,2013-05-25 10:15:00,
2013-05-25 06:20:00,49.6,42.3,30.23,N/A,-737280,0.0,-999.0,76,0.00,,,0.00,Wunderground v.1.15,2013-05-25 10:20:00,
2013-05-25 06:25:00,49.6,42.3,30.23,N/A,-737280,0.0,-999.0,76,0.00,,,0.00,Wunderground v.1.15,2013-05-25 10:25:00,
2013-05-25 06:30:00,49.6,42.3,30.23,N/A,-737280,0.0,-999.0,76,0.00,,,0.00,Wunderground v.1.15,2013-05-25 10:30:00,
2013-05-25 06:35:00,49.6,42.3,30.23,N/A,-737280,0.0,-999.0,76,0.00,,,0.00,Wunderground v.1.15,2013-05-25 10:35:00,
2013-05-25 06:40:00,49.6,42.3,30.23,N/A,-737280,0.0,-999.0,76,0.00,,,0.00,Wunderground v.1.15,2013-05-25 10:40:00,
2013-05-25 06:45:00,49.1,43.2,30.24,ENE,68,0.0,-999.0,80,0.00,,,0.00,Wunderground v.1.15,2013-05-25 10:45:00,
2013-05-25 06:50:00,49.1,43.2,30.24,ENE,68,0.0,-999.0,80,0.00,,,0.00,Wunderground v.1.15,2013-05-25 10:50:00,
2013-05-25 06:55:00,49.1,43.2,30.24,ENE,68,0.0,-999.0,80,0.00,,,0.00,Wunderground v.1.15,2013-05-25 10:55:00,
2013-05-25 07:00:00,49.1,43.2,30.24,ENE,68,0.0,-999.0,80,0.00,,,0.00,Wunderground v.1.15,2013-05-25 11:00:00,
2013-05-25 07:05:00,49.1,43.2,30.24,ENE,68,0.0,-999.0,80,0.00,,,0.00,Wunderground v.1.15,2013-05-25 11:05:00,
2013-05-25 07:10:00,49.1,43.2,30.24,ENE,68,0.0,-999.0,80,0.00,,,0.00,Wunderground v.1.15,2013-05-25 11:10:00,
2013-05-25 07:15:00,50.2,44.3,30.26,ENE,68,0.0,-999.0,80,0.00,,,0.00,Wunderground v.1.15,2013-05-25 11:15:00,
2013-05-25 07:20:00,50.2,44.3,30.26,ENE,68,0.0,-999.0,80,0.00,,,0.00,Wunderground v.1.15,2013-05-25 11:20:00,
2013-05-25 07:25:00,50.2,44.3,30.26,ENE,68,0.0,-999.0,80,0.00,,,0.00,Wunderground v.1.15,2013-05-25 11:25:00,
2013-05-25 07:30:00,50.2,44.3,30.26,ENE,68,0.0,-999.0,80,0.00,,,0.00,Wunderground v.1.15,2013-05-25 11:30:00,
2013-05-25 07:35:00,50.2,44.3,30.26,ENE,68,0.0,-999.0,80,0.00,,,0.00,Wunderground v.1.15,2013-05-25 11:35:00,
2013-05-25 07:40:00,50.2,44.3,30.26,ENE,68,0.0,-999.0,80,0.00,,,0.00,Wunderground v.1.15,2013-05-25 11:40:00,
2013-05-25 07:45:00,54.6,44.6,30.27,WSW,248,0.0,-999.0,69,0.00,,,0.00,Wunderground v.1.15,2013-05-25 11:45:00,
2013-05-25 07:50:00,54.6,44.6,30.27,WSW,248,0.0,-999.0,69,0.00,,,0.00,Wunderground v.1.15,2013-05-25 11:50:00,
2013-05-25 07:55:00,54.6,44.6,30.27,WSW,248,0.0,-999.0,69,0.00,,,0.00,Wunderground v.1.15,2013-05-25 11:55:00,
2013-05-25 08:00:00,54.6,44.6,30.27,WSW,248,0.0,-999.0,69,0.00,,,0.00,Wunderground v.1.15,2013-05-25 12:00:00,
2013-05-25 08:05:00,54.6,44.6,30.27,WSW,248,0.0,-999.0,69,0.00,,,0.00,Wunderground v.1.15,2013-05-25 12:05:00,
2013-05-25 08:10:00,54.6,44.6,30.27,WSW,248,0.0,-999.0,69,0.00,,,0.00,Wunderground v.1.15,2013-05-25 12:10:00,
2013-05-25 08:20:00,56.8,44.7,30.29,SW,225,2.0,-999.0,64,0.00,,,0.00,Wunderground v.1.15,2013-05-25 12:20:00,
2013-05-25 08:25:00,56.8,44.7,30.29,SW,225,2.0,-999.0,64,0.00,,,0.00,Wunderground v.1.15,2013-05-25 12:25:00,
2013-05-25 08:30:00,56.8,44.7,30.29,SW,225,2.0,-999.0,64,0.00,,,0.00,Wunderground v.1.15,2013-05-25 12:30:00,
2013-05-25 08:35:00,56.8,44.7,30.29,SW,225,2.0,-999.0,64,0.00,,,0.00,Wunderground v.1.15,2013-05-25 12:35:00,
2013-05-25 08:40:00,56.8,44.7,30.29,SW,225,2.0,-999.0,64,0.00,,,0.00,Wunderground v.1.15,2013-05-25 12:40:00,
2013-05-25 08:45:00,59.0,43.8,30.30,WSW,248,2.0,-999.0,57,0.00,,,0.00,Wunderground v.1.15,2013-05-25 12:45:00,
2013-05-25 08:50:00,59.0,43.8,30.30,WSW,248,2.0,-999.0,57,0.00,,,0.00,Wunderground v.1.15,2013-05-25 12:50:00,
2013-05-25 08:55:00,59.0,43.8,30.30,WSW,248,2.0,-999.0,57,0.00,,,0.00,Wunderground v.1.15,2013-05-25 12:55:00,
2013-05-25 09:00:00,59.0,43.8,30.30,WSW,248,2.0,-999.0,57,0.00,,,0.00,Wunderground v.1.15,2013-05-25 13:00:00,
2013-05-25 09:05:00,59.0,43.8,30.30,WSW,248,2.0,-999.0,57,0.00,,,0.00,Wunderground v.1.15,2013-05-25 13:05:00,
2013-05-25 09:10:00,59.0,43.8,30.30,WSW,248,2.0,-999.0,57,0.00,,,0.00,Wunderground v.1.15,2013-05-25 13:10:00,
2013-05-25 09:15:00,61.1,44.8,30.31,WSW,248,2.0,-999.0,55,0.00,,,0.00,Wunderground v.1.15,2013-05-25 13:15:00,
2013-05-25 09:20:00,61.1,44.8,30.31,WSW,248,2.0,-999.0,55,0.00,,,0.00,Wunderground v.1.15,2013-05-25 13:20:00,
2013-05-25 09:25:00,61.1,44.8,30.31,WSW,248,2.0,-999.0,55,0.00,,,0.00,Wunderground v.1.15,2013-05-25 13:25:00,
2013-05-25 09:30:00,61.1,44.8,30.31,WSW,248,2.0,-999.0,55,0.00,,,0.00,Wunderground v.1.15,2013-05-25 13:30:00,
2013-05-25 10:00:00,63.3,43.8,30.30,SE,130,1.0,1.0,49,0.00,,,0.00,Wunderground v.1.15,2013-05-25 14:00:00,
2013-05-25 10:10:00,63.9,43.8,30.29,WSW,244,1.0,3.0,48,0.00,,,0.00,Wunderground v.1.15,2013-05-25 14:10:00,
2013-05-25 10:15:00,64.2,44.6,30.29,South,169,1.0,3.0,49,0.00,,,0.00,Wunderground v.1.15,2013-05-25 14:15:00,
2013-05-25 10:20:00,64.2,44.1,30.29,SW,227,1.0,1.0,48,0.00,,,0.00,Wunderground v.1.15,2013-05-25 14:20:00,
2013-05-25 10:25:00,64.3,44.2,30.29,SW,230,1.0,1.0,48,0.00,,,0.00,Wunderground v.1.15,2013-05-25 14:25:00,
2013-05-25 10:30:00,64.3,43.1,30.29,SW,227,2.0,2.0,46,0.00,,,0.00,Wunderground v.1.15,2013-05-25 14:30:00,
2013-05-25 10:40:00,64.2,44.1,30.29,WSW,239,2.0,3.0,48,0.00,,,0.00,Wunderground v.1.15,2013-05-25 14:40:00,
2013-05-25 10:45:00,64.7,45.1,30.28,WSW,246,1.0,5.0,49,0.00,,,0.00,Wunderground v.1.15,2013-05-25 14:45:00,
2013-05-25 10:50:00,65.0,44.3,30.28,SW,234,1.0,5.0,47,0.00,,,0.00,Wunderground v.1.15,2013-05-25 14:50:00,
2013-05-25 10:55:00,65.2,44.5,30.28,WSW,256,1.0,1.0,47,0.00,,,0.00,Wunderground v.1.15,2013-05-25 14:55:00,
2013-05-25 11:00:00,66.0,47.3,30.28,WSW,251,1.0,1.0,51,0.00,,,0.00,Wunderground v.1.15,2013-05-25 15:00:00,
2013-05-25 11:05:00,66.7,44.7,30.28,WSW,252,0.0,3.0,45,0.00,,,0.00,Wunderground v.1.15,2013-05-25 15:05:00,
2013-05-25 11:10:00,67.0,43.1,30.28,ENE,67,1.0,1.0,42,0.00,,,0.00,Wunderground v.1.15,2013-05-25 15:10:00,
2013-05-25 11:15:00,67.2,44.5,30.28,WSW,244,1.0,1.0,44,0.00,,,0.00,Wunderground v.1.15,2013-05-25 15:15:00,
2013-05-25 11:20:00,67.5,44.2,30.29,WSW,255,1.0,2.0,43,0.00,,,0.00,Wunderground v.1.15,2013-05-25 15:20:00,
2013-05-25 11:25:00,67.2,44.5,30.29,WSW,246,1.0,2.0,44,0.00,,,0.00,Wunderground v.1.15,2013-05-25 15:25:00,
2013-05-25 11:30:00,67.7,43.1,30.28,WSW,237,1.0,1.0,41,0.00,,,0.00,Wunderground v.1.15,2013-05-25 15:30:00,
2013-05-25 11:35:00,67.9,46.3,30.28,SW,229,1.0,6.0,46,0.00,,,0.00,Wunderground v.1.15,2013-05-25 15:35:00,
2013-05-25 11:40:00,67.9,44.6,30.28,SW,229,1.0,6.0,43,0.00,,,0.00,Wunderground v.1.15,2013-05-25 15:40:00,
2013-05-25 11:45:00,67.8,45.1,30.28,WSW,240,2.0,6.0,44,0.00,,,0.00,Wunderground v.1.15,2013-05-25 15:45:00,
2013-05-25 11:50:00,68.0,43.4,30.28,NE,51,2.0,2.0,41,0.00,,,0.00,Wunderground v.1.15,2013-05-25 15:50:00,
2013-05-25 11:55:00,68.5,45.1,30.28,NNE,12,1.0,6.0,43,0.00,,,0.00,Wunderground v.1.15,2013-05-25 15:55:00,
2013-05-25 12:00:00,68.7,43.4,30.28,SW,232,1.0,1.0,40,0.00,,,0.00,Wunderground v.1.15,2013-05-25 16:00:00,
2013-05-25 12:05:00,69.2,45.7,30.28,WSW,242,1.0,6.0,43,0.00,,,0.00,Wunderground v.1.15,2013-05-25 16:05:00,
2013-05-25 12:10:00,69.9,45.1,30.29,SW,232,1.0,6.0,41,0.00,,,0.00,Wunderground v.1.15,2013-05-25 16:10:00,
2013-05-25 12:15:00,70.2,46.6,30.26,SW,225,1.0,6.0,43,0.00,,,0.00,Wunderground v.1.15,2013-05-25 16:15:00,
2013-05-25 12:20:00,70.4,44.9,30.26,WSW,249,1.0,6.0,40,0.00,,,0.00,Wunderground v.1.15,2013-05-25 16:20:00,
2013-05-25 12:25:00,69.9,43.1,30.26,West,266,2.0,6.0,38,0.00,,,0.00,Wunderground v.1.15,2013-05-25 16:25:00,
2013-05-25 12:30:00,69.4,45.9,30.26,SSW,203,2.0,2.0,43,0.00,,,0.00,Wunderground v.1.15,2013-05-25 16:30:00,
2013-05-25 12:35:00,69.4,47.1,30.26,West,259,2.0,3.0,45,0.00,,,0.00,Wunderground v.1.15,2013-05-25 16:35:00,
2013-05-25 12:40:00,69.7,48.0,30.26,West,274,2.0,2.0,46,0.00,,,0.00,Wunderground v.1.15,2013-05-25 16:40:00,
2013-05-25 12:45:00,69.7,44.3,30.26,WSW,248,2.0,6.0,40,0.00,,,0.00,Wunderground v.1.15,2013-05-25 16:45:00,
2013-05-25 12:50:00,69.8,41.6,30.26,SE,146,1.0,1.0,36,0.00,,,0.00,Wunderground v.1.15,2013-05-25 16:50:00,
2013-05-25 12:55:00,70.2,46.0,30.25,SW,215,1.0,6.0,42,0.00,,,0.00,Wunderground v.1.15,2013-05-25 16:55:00,
2013-05-25 13:00:00,70.8,45.3,30.25,SW,234,1.0,6.0,40,0.00,,,0.00,Wunderground v.1.15,2013-05-25 17:00:00,
2013-05-25 13:05:00,70.7,43.8,30.25,SW,223,1.0,6.0,38,0.00,,,0.00,Wunderground v.1.15,2013-05-25 17:05:00,
2013-05-25 13:10:00,70.2,45.4,30.25,West,263,2.0,6.0,41,0.00,,,0.00,Wunderground v.1.15,2013-05-25 17:10:00,
2013-05-25 13:15:00,70.2,46.6,30.24,NW,321,2.0,6.0,43,0.00,,,0.00,Wunderground v.1.15,2013-05-25 17:15:00,
2013-05-25 13:20:00,70.3,45.5,30.24,West,273,2.0,2.0,41,0.00,,,0.00,Wunderground v.1.15,2013-05-25 17:20:00,
2013-05-25 13:25:00,70.7,47.1,30.24,West,260,1.0,6.0,43,0.00,,,0.00,Wunderground v.1.15,2013-05-25 17:25:00,
2013-05-25 13:30:00,71.2,45.6,30.24,SE,138,1.0,1.0,40,0.00,,,0.00,Wunderground v.1.15,2013-05-25 17:30:00,
2013-05-25 13:35:00,71.5,45.2,30.23,West,259,1.0,3.0,39,0.00,,,0.00,Wunderground v.1.15,2013-05-25 17:35:00,
2013-05-25 13:40:00,71.2,44.3,30.23,WSW,257,1.0,1.0,38,0.00,,,0.00,Wunderground v.1.15,2013-05-25 17:40:00,
2013-05-25 13:45:00,71.7,44.7,30.23,NNW,334,1.0,6.0,38,0.00,,,0.00,Wunderground v.1.15,2013-05-25 17:45:00,
2013-05-25 13:50:00,72.1,47.1,30.23,West,271,1.0,6.0,41,0.00,,,0.00,Wunderground v.1.15,2013-05-25 17:50:00,
2013-05-25 13:55:00,72.3,46.6,30.23,SW,232,1.0,6.0,40,0.00,,,0.00,Wunderground v.1.15,2013-05-25 17:55:00,
2013-05-25 14:00:00,73.2,48.7,30.22,SW,231,1.0,1.0,42,0.00,,,0.00,Wunderground v.1.15,2013-05-25 18:00:00,
2013-05-25 14:05:00,73.3,46.2,30.22,SSW,196,1.0,6.0,38,0.00,,,0.00,Wunderground v.1.15,2013-05-25 18:05:00,
2013-05-25 14:10:00,73.9,45.3,30.21,NNE,22,1.0,1.0,36,0.00,,,0.00,Wunderground v.1.15,2013-05-25 18:10:00,
2013-05-25 14:15:00,74.2,44.8,30.21,SE,143,0.0,6.0,35,0.00,,,0.00,Wunderground v.1.15,2013-05-25 18:15:00,
2013-05-25 14:20:00,74.4,45.7,30.21,WSW,250,0.0,6.0,36,0.00,,,0.00,Wunderground v.1.15,2013-05-25 18:20:00,
2013-05-25 14:25:00,74.4,47.8,30.21,West,260,1.0,6.0,39,0.00,,,0.00,Wunderground v.1.15,2013-05-25 18:25:00,
2013-05-25 14:30:00,74.1,45.4,30.20,WSW,255,2.0,2.0,36,0.00,,,0.00,Wunderground v.1.15,2013-05-25 18:30:00,
2013-05-25 14:35:00,74.4,44.2,30.20,ENE,57,1.0,6.0,34,0.00,,,0.00,Wunderground v.1.15,2013-05-25 18:35:00,
2013-05-25 14:40:00,74.5,47.2,30.20,West,263,1.0,6.0,38,0.00,,,0.00,Wunderground v.1.15,2013-05-25 18:40:00,
2013-05-25 14:45:00,73.9,44.5,30.20,West,269,2.0,6.0,35,0.00,,,0.00,Wunderground v.1.15,2013-05-25 18:45:00,
2013-05-25 14:50:00,74.3,44.1,30.19,NW,317,2.0,2.0,34,0.00,,,0.00,Wunderground v.1.15,2013-05-25 18:50:00,
2013-05-25 14:55:00,74.5,45.0,30.19,SW,229,1.0,6.0,35,0.00,,,0.00,Wunderground v.1.15,2013-05-25 18:55:00,
2013-05-25 15:00:00,74.9,44.6,30.19,West,272,2.0,6.0,34,0.00,,,0.00,Wunderground v.1.15,2013-05-25 19:00:00,
2013-05-25 15:05:00,74.8,42.1,30.18,WSW,245,3.0,8.0,31,0.00,,,0.00,Wunderground v.1.15,2013-05-25 19:05:00,
2013-05-25 15:10:00,74.5,46.5,30.18,West,273,5.0,5.0,37,0.00,,,0.00,Wunderground v.1.15,2013-05-25 19:10:00,
2013-05-25 15:15:00,74.6,44.4,30.18,WSW,254,4.0,6.0,34,0.00,,,0.00,Wunderground v.1.15,2013-05-25 19:15:00,
2013-05-25 15:20:00,74.9,46.9,30.18,SW,236,3.0,3.0,37,0.00,,,0.00,Wunderground v.1.15,2013-05-25 19:20:00,
2013-05-25 15:25:00,75.0,47.0,30.18,SSW,194,3.0,6.0,37,0.00,,,0.00,Wunderground v.1.15,2013-05-25 19:25:00,
2013-05-25 15:30:00,75.5,47.4,30.17,West,275,3.0,3.0,37,0.00,,,0.00,Wunderground v.1.15,2013-05-25 19:30:00,
2013-05-25 15:35:00,76.1,46.5,30.18,WSW,243,2.0,8.0,35,0.00,,,0.00,Wunderground v.1.15,2013-05-25 19:35:00,
2013-05-25 15:40:00,75.0,46.2,30.18,West,269,3.0,3.0,36,0.00,,,0.00,Wunderground v.1.15,2013-05-25 19:40:00,
2013-05-25 15:45:00,75.4,47.3,30.18,West,261,3.0,6.0,37,0.00,,,0.00,Wunderground v.1.15,2013-05-25 19:45:00,
2013-05-25 15:50:00,75.0,44.7,30.18,SSW,206,3.0,6.0,34,0.00,,,0.00,Wunderground v.1.15,2013-05-25 19:50:00,
2013-05-25 15:55:00,74.6,44.4,30.18,West,273,5.0,6.0,34,0.00,,,0.00,Wunderground v.1.15,2013-05-25 19:55:00,
2013-05-25 16:00:00,74.6,43.6,30.18,WSW,252,4.0,4.0,33,0.00,,,0.00,Wunderground v.1.15,2013-05-25 20:00:00,
2013-05-25 16:05:00,74.8,45.3,30.17,South,173,4.0,6.0,35,0.00,,,0.00,Wunderground v.1.15,2013-05-25 20:05:00,
2013-05-25 16:10:00,75.5,45.9,30.17,WSW,254,4.0,4.0,35,0.00,,,0.00,Wunderground v.1.15,2013-05-25 20:10:00,
2013-05-25 16:15:00,75.9,47.0,30.17,WSW,245,3.0,5.0,36,0.00,,,0.00,Wunderground v.1.15,2013-05-25 20:15:00,
2013-05-25 16:20:00,75.8,45.4,30.17,SW,221,4.0,7.0,34,0.00,,,0.00,Wunderground v.1.15,2013-05-25 20:20:00,
2013-05-25 16:25:00,75.5,47.4,30.17,WSW,244,5.0,7.0,37,0.00,,,0.00,Wunderground v.1.15,2013-05-25 20:25:00,
2013-05-25 16:35:00,75.7,50.3,30.16,SW,215,4.0,6.0,41,0.00,,,0.00,Wunderground v.1.15,2013-05-25 20:35:00,
2013-05-25 16:40:00,76.7,49.2,30.16,WSW,252,3.0,3.0,38,0.00,,,0.00,Wunderground v.1.15,2013-05-25 20:40:00,
2013-05-25 16:45:00,76.4,44.4,30.16,West,267,3.0,6.0,32,0.00,,,0.00,Wunderground v.1.15,2013-05-25 20:45:00,
2013-05-25 16:50:00,75.9,47.0,30.16,SW,227,4.0,7.0,36,0.00,,,0.00,Wunderground v.1.15,2013-05-25 20:50:00,
2013-05-25 16:55:00,75.9,48.5,30.16,WSW,246,4.0,7.0,38,0.00,,,0.00,Wunderground v.1.15,2013-05-25 20:55:00,
2013-05-25 17:00:00,76.0,45.6,30.16,SW,235,4.0,4.0,34,0.00,,,0.00,Wunderground v.1.15,2013-05-25 21:00:00,
2013-05-25 17:06:00,76.1,50.0,30.16,SW,225,4.0,6.0,40,0.00,,,0.00,Wunderground v.1.15,2013-05-25 21:06:00,
2013-05-25 17:10:00,76.5,46.0,30.16,WSW,242,3.0,3.0,34,0.00,,,0.00,Wunderground v.1.15,2013-05-25 21:10:00,
2013-05-25 17:15:00,76.8,47.8,30.15,West,270,2.0,5.0,36,0.00,,,0.00,Wunderground v.1.15,2013-05-25 21:15:00,
2013-05-25 17:20:00,76.7,49.9,30.15,WSW,250,3.0,3.0,39,0.00,,,0.00,Wunderground v.1.15,2013-05-25 21:20:00,
2013-05-25 17:25:00,76.6,46.1,30.15,WNW,292,3.0,3.0,34,0.00,,,0.00,Wunderground v.1.15,2013-05-25 21:25:00,
2013-05-25 17:30:00,76.9,48.6,30.15,West,263,3.0,4.0,37,0.00,,,0.00,Wunderground v.1.15,2013-05-25 21:30:00,
2013-05-25 17:35:00,77.3,46.7,30.15,WSW,251,2.0,4.0,34,0.00,,,0.00,Wunderground v.1.15,2013-05-25 21:35:00,
2013-05-25 17:40:00,77.2,47.4,30.15,SW,236,2.0,3.0,35,0.00,,,0.00,Wunderground v.1.15,2013-05-25 21:40:00,
2013-05-25 17:45:00,76.8,47.1,30.15,WSW,250,4.0,4.0,35,0.00,,,0.00,Wunderground v.1.15,2013-05-25 21:45:00,
2013-05-25 17:50:00,76.7,47.0,30.15,West,271,4.0,5.0,35,0.00,,,0.00,Wunderground v.1.15,2013-05-25 21:50:00,
2013-05-25 17:55:00,76.8,46.3,30.15,WSW,239,3.0,5.0,34,0.00,,,0.00,Wunderground v.1.15,2013-05-25 21:55:00,
2013-05-25 18:05:00,76.8,47.8,30.15,West,270,3.0,5.0,36,0.00,,,0.00,Wunderground v.1.15,2013-05-25 22:05:00,
2013-05-25 18:10:00,76.5,48.3,30.15,West,273,3.0,10.0,37,0.00,,,0.00,Wunderground v.1.15,2013-05-25 22:10:00,
2013-05-25 18:15:00,76.8,50.6,30.14,West,279,3.0,10.0,40,0.00,,,0.00,Wunderground v.1.15,2013-05-25 22:15:00,
2013-05-25 18:20:00,77.3,49.7,30.14,West,261,2.0,2.0,38,0.00,,,0.00,Wunderground v.1.15,2013-05-25 22:20:00,
2013-05-25 18:25:00,77.4,50.5,30.14,WSW,253,2.0,10.0,39,0.00,,,0.00,Wunderground v.1.15,2013-05-25 22:25:00,
2013-05-25 18:30:00,77.7,48.6,30.14,West,277,2.0,10.0,36,0.00,,,0.00,Wunderground v.1.15,2013-05-25 22:30:00,
2013-05-25 18:35:00,77.2,47.4,30.14,WSW,247,2.0,10.0,35,0.00,,,0.00,Wunderground v.1.15,2013-05-25 22:35:00,
2013-05-25 18:40:00,77.0,48.7,30.14,West,264,3.0,3.0,37,0.00,,,0.00,Wunderground v.1.15,2013-05-25 22:40:00,
2013-05-25 18:45:00,76.5,48.3,30.14,WSW,252,3.0,10.0,37,0.00,,,0.00,Wunderground v.1.15,2013-05-25 22:45:00,
2013-05-25 18:50:00,76.8,50.6,30.14,WSW,252,2.0,2.0,40,0.00,,,0.00,Wunderground v.1.15,2013-05-25 22:50:00,
2013-05-25 18:55:00,77.0,50.8,30.14,West,261,1.0,10.0,40,0.00,,,0.00,Wunderground v.1.15,2013-05-25 22:55:00,
2013-05-25 19:05:00,76.0,49.2,30.14,West,259,3.0,10.0,39,0.00,,,0.00,Wunderground v.1.15,2013-05-25 23:05:00,
2013-05-25 19:10:00,75.6,48.2,30.14,WSW,257,3.0,10.0,38,0.00,,,0.00,Wunderground v.1.15,2013-05-25 23:10:00,
2013-05-25 19:15:00,75.0,48.4,30.14,West,260,3.0,10.0,39,0.00,,,0.00,Wunderground v.1.15,2013-05-25 23:15:00,
2013-05-25 19:20:00,74.7,48.8,30.14,West,260,3.0,10.0,40,0.00,,,0.00,Wunderground v.1.15,2013-05-25 23:20:00,
2013-05-25 19:25:00,74.5,48.6,30.14,WSW,250,3.0,10.0,40,0.00,,,0.00,Wunderground v.1.15,2013-05-25 23:25:00,
2013-05-25 19:30:00,74.4,51.1,30.15,West,267,3.0,3.0,44,0.00,,,0.00,Wunderground v.1.15,2013-05-25 23:30:00,
2013-05-25 19:35:00,73.8,49.9,30.15,WSW,252,2.0,10.0,43,0.00,,,0.00,Wunderground v.1.15,2013-05-25 23:35:00,
2013-05-25 19:40:00,73.5,50.9,30.15,WSW,252,2.0,2.0,45,0.00,,,0.00,Wunderground v.1.15,2013-05-25 23:40:00,
2013-05-25 19:45:00,73.3,51.3,30.15,WSW,252,1.0,10.0,46,0.00,,,0.00,Wunderground v.1.15,2013-05-25 23:45:00,
2013-05-25 19:50:00,73.1,49.9,30.15,WNW,284,1.0,1.0,44,0.00,,,0.00,Wunderground v.1.15,2013-05-25 23:50:00,
2013-05-25 19:55:00,73.0,50.4,30.15,WSW,238,1.0,10.0,45,0.00,,,0.00,Wunderground v.1.15,2013-05-25 23:55:00,
2013-05-25 20:00:00,72.8,49.0,30.15,WNW,284,0.0,10.0,43,0.00,,,0.00,Wunderground v.1.15,2013-05-26 00:00:00,
2013-05-25 20:05:00,72.5,46.8,30.15,WNW,284,0.0,10.0,40,0.00,,,0.00,Wunderground v.1.15,2013-05-26 00:05:00,
2013-05-25 20:10:00,72.3,47.3,30.15,WNW,284,0.0,10.0,41,0.00,,,0.00,Wunderground v.1.15,2013-05-26 00:10:00,
2013-05-25 20:15:00,72.1,47.1,30.16,WNW,284,0.0,10.0,41,0.00,,,0.00,Wunderground v.1.15,2013-05-26 00:15:00,
2013-05-25 20:20:00,71.8,47.5,30.15,WNW,284,0.0,10.0,42,0.00,,,0.00,Wunderground v.1.15,2013-05-26 00:20:00,
2013-05-25 20:25:00,71.3,48.3,30.15,WNW,284,0.0,10.0,44,0.00,,,0.00,Wunderground v.1.15,2013-05-26 00:25:00,
2013-05-25 20:30:00,70.8,47.8,30.16,WNW,284,0.0,10.0,44,0.00,,,0.00,Wunderground v.1.15,2013-05-26 00:30:00,
2013-05-25 20:35:00,70.3,47.9,30.16,WNW,284,0.0,10.0,45,0.00,,,0.00,Wunderground v.1.15,2013-05-26 00:35:00,
2013-05-25 20:40:00,69.7,48.0,30.16,WNW,284,0.0,10.0,46,0.00,,,0.00,Wunderground v.1.15,2013-05-26 00:40:00,
2013-05-25 20:45:00,69.2,48.1,30.16,WNW,284,0.0,10.0,47,0.00,,,0.00,Wunderground v.1.15,2013-05-26 00:45:00,
2013-05-25 20:50:00,68.6,47.0,30.16,WNW,284,0.0,10.0,46,0.00,,,0.00,Wunderground v.1.15,2013-05-26 00:50:00,
2013-05-25 20:55:00,68.1,47.7,30.16,WNW,284,0.0,10.0,48,0.00,,,0.00,Wunderground v.1.15,2013-05-26 00:55:00,
2013-05-25 21:00:00,67.5,47.1,30.16,WNW,284,0.0,10.0,48,0.00,,,0.00,Wunderground v.1.15,2013-05-26 01:00:00,
2013-05-25 21:05:00,67.0,46.7,30.16,WNW,284,0.0,10.0,48,0.00,,,0.00,Wunderground v.1.15,2013-05-26 01:05:00,
2013-05-25 21:10:00,66.4,45.5,30.16,WNW,284,0.0,10.0,47,0.00,,,0.00,Wunderground v.1.15,2013-05-26 01:10:00,
2013-05-25 21:15:00,66.0,45.2,30.16,WNW,284,0.0,10.0,47,0.00,,,0.00,Wunderground v.1.15,2013-05-26 01:15:00,
2013-05-25 21:20:00,65.8,44.4,30.16,WNW,284,0.0,10.0,46,0.00,,,0.00,Wunderground v.1.15,2013-05-26 01:20:00,
2013-05-25 21:25:00,65.8,44.4,30.17,WNW,284,0.0,10.0,46,0.00,,,0.00,Wunderground v.1.15,2013-05-26 01:25:00,
2013-05-25 21:30:00,65.6,43.7,30.17,WNW,284,0.0,10.0,45,0.00,,,0.00,Wunderground v.1.15,2013-05-26 01:30:00,
2013-05-25 21:35:00,65.6,44.3,30.17,WNW,284,0.0,10.0,46,0.00,,,0.00,Wunderground v.1.15,2013-05-26 01:35:00,
2013-05-25 21:40:00,65.4,44.1,30.17,WNW,284,0.0,10.0,46,0.00,,,0.00,Wunderground v.1.15,2013-05-26 01:40:00,
2013-05-25 21:45:00,65.3,44.0,30.17,WNW,284,0.0,10.0,46,0.00,,,0.00,Wunderground v.1.15,2013-05-26 01:45:00,
2013-05-25 21:50:00,65.0,44.3,30.17,WNW,284,0.0,10.0,47,0.00,,,0.00,Wunderground v.1.15,2013-05-26 01:50:00,
2013-05-25 21:55:00,64.8,44.6,30.17,WNW,284,0.0,10.0,48,0.00,,,0.00,Wunderground v.1.15,2013-05-26 01:55:00,
2013-05-25 22:00:00,64.6,45.5,30.17,WNW,284,0.0,10.0,50,0.00,,,0.00,Wunderground v.1.15,2013-05-26 02:00:00,
2013-05-25 22:05:00,64.3,45.3,30.17,WNW,284,0.0,10.0,50,0.00,,,0.00,Wunderground v.1.15,2013-05-26 02:05:00,
2013-05-25 22:10:00,64.1,45.1,30.17,WNW,284,0.0,10.0,50,0.00,,,0.00,Wunderground v.1.15,2013-05-26 02:10:00,
2013-05-25 22:15:00,63.8,45.3,30.18,WNW,284,0.0,10.0,51,0.00,,,0.00,Wunderground v.1.15,2013-05-26 02:15:00,
2013-05-25 22:20:00,63.4,46.0,30.18,WNW,284,0.0,10.0,53,0.00,,,0.00,Wunderground v.1.15,2013-05-26 02:20:00,
2013-05-25 22:25:00,63.1,45.2,30.18,WNW,284,0.0,10.0,52,0.00,,,0.00,Wunderground v.1.15,2013-05-26 02:25:00,
2013-05-25 22:30:00,62.7,44.8,30.18,WNW,284,0.0,10.0,52,0.00,,,0.00,Wunderground v.1.15,2013-05-26 02:30:00,
2013-05-25 22:35:00,62.5,44.6,30.18,WNW,284,0.0,10.0,52,0.00,,,0.00,Wunderground v.1.15,2013-05-26 02:35:00,
2013-05-25 22:40:00,62.4,44.5,30.18,WNW,284,0.0,10.0,52,0.00,,,0.00,Wunderground v.1.15,2013-05-26 02:40:00,
2013-05-25 22:45:00,62.3,45.4,30.18,WNW,284,0.0,10.0,54,0.00,,,0.00,Wunderground v.1.15,2013-05-26 02:45:00,
2013-05-25 22:50:00,62.4,46.5,30.18,WNW,284,0.0,10.0,56,0.00,,,0.00,Wunderground v.1.15,2013-05-26 02:50:00,
2013-05-25 22:55:00,62.5,47.1,30.18,WNW,284,0.0,10.0,57,0.00,,,0.00,Wunderground v.1.15,2013-05-26 02:55:00,
2013-05-25 23:00:00,62.5,47.1,30.18,WNW,284,0.0,10.0,57,0.00,,,0.00,Wunderground v.1.15,2013-05-26 03:00:00,
2013-05-25 23:05:00,62.4,47.4,30.18,WNW,284,0.0,10.0,58,0.00,,,0.00,Wunderground v.1.15,2013-05-26 03:05:00,
2013-05-25 23:10:00,62.5,47.1,30.18,WNW,293,0.0,-999.0,57,0.00,,,0.00,Wunderground v.1.15,2013-05-26 03:10:00,
2013-05-25 23:15:00,61.8,47.3,30.18,WNW,293,0.0,-999.0,59,0.00,,,0.00,Wunderground v.1.15,2013-05-26 03:15:00,
2013-05-25 23:20:00,61.8,47.3,30.18,WNW,293,0.0,-999.0,59,0.00,,,0.00,Wunderground v.1.15,2013-05-26 03:20:00,
2013-05-25 23:25:00,61.8,47.3,30.18,WNW,293,0.0,-999.0,59,0.00,,,0.00,Wunderground v.1.15,2013-05-26 03:25:00,
2013-05-25 23:30:00,61.8,47.3,30.18,WNW,293,0.0,-999.0,59,0.00,,,0.00,Wunderground v.1.15,2013-05-26 03:30:00,
2013-05-25 23:35:00,61.8,47.3,30.18,WNW,293,0.0,-999.0,59,0.00,,,0.00,Wunderground v.1.15,2013-05-26 03:35:00,
2013-05-25 23:40:00,61.8,47.3,30.18,WNW,293,0.0,-999.0,59,0.00,,,0.00,Wunderground v.1.15,2013-05-26 03:40:00,
2013-05-25 23:45:00,61.1,47.1,30.18,N/A,-737280,0.0,-999.0,60,0.00,,,0.00,Wunderground v.1.15,2013-05-26 03:45:00,
2013-05-25 23:50:00,61.1,47.1,30.18,N/A,-737280,0.0,-999.0,60,0.00,,,0.00,Wunderground v.1.15,2013-05-26 03:50:00,
2013-05-25 23:55:00,61.1,47.1,30.18,N/A,-737280,0.0,-999.0,60,0.00,,,0.00,Wunderground v.1.15,2013-05-26 03:55:00,